AA8FM-13 Weather Reports


time (UTC)temp
C
wind
direction
speed
KPH
gust
KPH
rain 1hr
cm
rain 24hr
cm
rain mn
cm
humidity
%
barometer
mb
20260508033902 6 255 0.0 0.0 0.00 0.00 0.00 73 1011.5
20260508033401 7 249 0.0 0.0 0.00 0.00 0.00 71 1011.5
20260508032858 7 266 0.0 0.0 0.00 0.00 0.00 70 1011.4
20260508032355 7 288 0.0 0.0 0.00 0.00 0.00 70 1011.4
20260508031851 7 256 0.0 0.0 0.00 0.00 0.00 68 1011.5
20260508031349 7 256 0.0 0.0 0.00 0.00 0.00 66 1011.7
20260508030844 8 255 0.0 0.0 0.00 0.00 0.00 66 1011.4
20260508030342 8 279 0.0 0.0 0.00 0.00 0.00 65 1011.4
20260508025839 8 256 0.0 0.0 0.00 0.00 0.00 65 1011.4
20260508025336 9 242 0.0 0.0 0.00 0.00 0.00 63 1011.3
20260508024832 10 211 0.0 0.0 0.00 0.00 0.00 59 1011.1
20260508024329 10 260 0.0 0.0 0.00 0.00 0.00 59 1011.0
20260508023826 10 304 0.0 0.0 0.00 0.00 0.00 55 1011.1
20260508023323 10 275 0.0 0.0 0.00 0.00 0.00 55 1011.1
20260508022819 10 260 0.0 0.0 0.00 0.00 0.00 57 1011.2
20260508022315 10 337 0.0 1.6 0.00 0.00 0.00 54 1010.9
20260508021812 10 289 0.0 0.0 0.00 0.00 0.00 55 1011.1
20260508021308 10 298 0.0 1.6 0.00 0.00 0.00 53 1011.0
20260508020804 10 317 0.0 0.0 0.00 0.00 0.00 53 1010.7
20260508020302 11 323 1.6 3.2 0.00 0.00 0.00 53 1010.7
20260508015759 11 261 0.0 0.0 0.00 0.00 0.00 51 1010.9
20260508015257 11 300 0.0 0.0 0.00 0.00 0.00 50 1010.7
20260508014753 11 329 0.0 0.0 0.00 0.00 0.00 49 1010.5
20260508014250 11 278 0.0 1.6 0.00 0.00 0.00 49 1010.5
20260508013745 11 320 1.6 1.6 0.00 0.00 0.00 49 1010.5
20260508013242 11 275 0.0 0.0 0.00 0.00 0.00 49 1010.4
20260508012740 11 327 0.0 0.0 0.00 0.00 0.00 47 1010.3
20260508012236 11 312 0.0 1.6 0.00 0.00 0.00 48 1010.0
20260508011735 11 290 0.0 0.0 0.00 0.00 0.00 48 1010.0
20260508011232 11 254 0.0 0.0 0.00 0.00 0.00 47 1010.0
20260508010728 11 277 0.0 1.6 0.00 0.00 0.00 47 1009.9
20260508010227 12 297 0.0 0.0 0.00 0.00 0.00 47 1009.7
20260508005723 11 20 0.0 1.6 0.00 0.00 0.00 46 1010.0
20260508005220 12 251 0.0 0.0 0.00 0.00 0.00 47 1010.0
20260508004716 12 232 0.0 0.0 0.00 0.00 0.00 46 1009.7
20260508004212 12 48 0.0 0.0 0.00 0.00 0.00 45 1009.5
20260508003709 12 21 1.6 4.8 0.00 0.00 0.00 45 1009.6
20260508003207 12 317 1.6 1.6 0.00 0.00 0.00 45 1009.5
20260508002703 12 331 1.6 1.6 0.00 0.00 0.00 45 1009.4
20260508002201 13 312 1.6 1.6 0.00 0.00 0.00 46 1009.3
20260508001656 13 331 1.6 3.2 0.00 0.00 0.00 47 1009.4
20260508001152 13 10 1.6 1.6 0.00 0.00 0.00 47 1009.3
20260508000648 13 226 0.0 0.0 0.00 0.00 0.00 46 1009.2
20260508000146 13 344 0.0 1.6 0.00 0.00 0.00 45 1009.0
20260507235642 13 227 0.0 0.0 0.00 0.00 0.00 46 1008.8
20260507235140 13 306 1.6 3.2 0.00 0.00 0.00 46 1009.0
20260507234636 13 207 0.0 0.0 0.00 0.00 0.00 47 1008.8
20260507234132 13 349 1.6 1.6 0.00 0.00 0.00 46 1008.8
20260507233629 14 337 3.2 3.2 0.00 0.00 0.00 45 1008.6
20260507233128 14 306 3.2 3.2 0.00 0.00 0.00 45 1008.8
20260507232625 15 209 0.0 1.6 0.00 0.00 0.00 45 1008.6
20260507232121 15 333 4.8 4.8 0.00 0.00 0.00 43 1008.5
20260507231617 15 321 1.6 3.2 0.00 0.00 0.00 44 1008.5
20260507231115 15 6 3.2 4.8 0.00 0.00 0.00 42 1008.7
20260507230611 15 326 6.4 11.3 0.00 0.00 0.00 42 1008.5
20260507230109 15 252 6.4 9.7 0.00 0.00 0.00 40 1008.4
20260507225603 16 287 14.5 20.9 0.00 0.00 0.00 41 1008.2
20260507225100 16 325 1.6 3.2 0.00 0.00 0.00 43 1008.2
20260507224555 15 302 1.6 3.2 0.00 0.00 0.00 43 1008.0
20260507224052 15 296 1.6 3.2 0.00 0.00 0.00 44 1008.3
20260507223548 15 1 3.2 4.8 0.00 0.00 0.00 44 1008.3
20260507223045 15 273 0.0 0.0 0.00 0.00 0.00 43 1008.3
20260507222542 15 280 3.2 4.8 0.00 0.00 0.00 46 1008.2
20260507222039 15 287 0.0 3.2 0.00 0.00 0.00 43 1008.1
20260507221535 15 331 1.6 3.2 0.00 0.00 0.00 42 1008.2
20260507221032 15 347 6.4 9.7 0.00 0.00 0.00 45 1008.1
20260507220529 15 344 6.4 6.4 0.00 0.00 0.00 42 1008.3
20260507220027 16 274 0.0 1.6 0.00 0.00 0.00 43 1007.9
20260507215523 16 7 8.0 12.9 0.00 0.00 0.00 42 1007.8
20260507215021 16 216 1.6 1.6 0.00 0.00 0.00 43 1007.8
20260507214518 16 52 1.6 1.6 0.00 0.00 0.00 43 1007.9
20260507214013 16 39 1.6 1.6 0.00 0.00 0.00 42 1008.0
20260507213510 16 8 6.4 11.3 0.00 0.00 0.00 42 1007.8
20260507213007 16 350 11.3 17.7 0.00 0.00 0.00 43 1007.8
20260507212503 16 330 4.8 6.4 0.00 0.00 0.00 42 1007.8
20260507211959 16 308 8.0 11.3 0.00 0.00 0.00 42 1007.4
20260507211456 17 255 1.6 1.6 0.00 0.00 0.00 45 1007.6
20260507210953 17 53 1.6 3.2 0.00 0.00 0.00 44 1007.4
20260507210450 16 287 4.8 6.4 0.00 0.00 0.00 41 1007.7
20260507205947 16 0 6.4 11.3 0.00 0.00 0.00 44 1007.5
20260507205444 16 309 1.6 1.6 0.00 0.00 0.00 43 1007.6
20260507204940 16 346 8.0 12.9 0.00 0.00 0.00 45 1007.5
20260507204436 15 229 1.6 3.2 0.00 0.00 0.00 45 1007.6
20260507203934 15 343 8.0 12.9 0.00 0.00 0.00 45 1007.5
20260507203432 15 317 0.0 1.6 0.00 0.00 0.00 49 1007.8
20260507202928 15 334 3.2 4.8 0.00 0.00 0.00 46 1007.5
20260507202425 16 346 3.2 4.8 0.00 0.00 0.00 45 1007.6
20260507201921 15 315 1.6 6.4 0.00 0.00 0.00 46 1007.7
20260507201416 15 5 3.2 4.8 0.00 0.00 0.00 47 1007.8
20260507200913 17 295 4.8 6.4 0.00 0.00 0.00 47 1007.8
20260507200409 16 345 9.7 11.3 0.00 0.00 0.00 46 1007.5
20260507195904 16 350 8.0 11.3 0.00 0.00 0.00 46 1007.5
20260507195402 16 159 0.0 1.6 0.00 0.00 0.00 48 1008.0
20260507194859 16 322 1.6 3.2 0.00 0.00 0.00 49 1008.0
20260507194356 16 66 3.2 6.4 0.00 0.00 0.00 46 1008.2
20260507193852 17 275 0.0 3.2 0.00 0.00 0.00 50 1008.2
20260507193349 16 214 1.6 3.2 0.00 0.00 0.00 50 1008.3
20260507192845 15 307 3.2 3.2 0.00 0.00 0.00 48 1008.1
20260507192342 16 337 3.2 4.8 0.00 0.00 0.00 47 1008.5
20260507191838 16 266 0.0 0.0 0.00 0.00 0.00 50 1008.4
20260507191335 15 296 9.7 11.3 0.00 0.00 0.00 48 1008.2
20260507190832 15 11 9.7 11.3 0.00 0.00 0.00 48 1008.2
20260507190330 16 353 1.6 1.6 0.00 0.00 0.00 50 1008.3
20260507185829 17 338 6.4 9.7 0.00 0.00 0.00 45 1008.2
20260507185325 16 307 1.6 1.6 0.00 0.00 0.00 47 1008.2
20260507184822 15 256 1.6 3.2 0.00 0.00 0.00 53 1008.2
20260507184320 16 330 1.6 1.6 0.00 0.00 0.00 49 1008.4
20260507183817 16 343 1.6 3.2 0.00 0.00 0.00 46 1008.4
20260507183314 16 330 3.2 9.7 0.00 0.00 0.00 51 1008.4
20260507182811 16 110 1.6 3.2 0.00 0.00 0.00 48 1008.1
20260507182307 16 6 3.2 4.8 0.00 0.00 0.00 48 1008.4
20260507181803 16 95 0.0 1.6 0.00 0.00 0.00 49 1008.7
20260507181259 16 12 4.8 6.4 0.00 0.00 0.00 48 1008.4
20260507180756 16 299 1.6 1.6 0.00 0.00 0.00 49 1008.5
20260507180253 16 245 3.2 4.8 0.00 0.00 0.00 53 1008.4
20260507175748 15 219 0.0 0.0 0.00 0.00 0.00 56 1008.5
20260507175246 16 212 0.0 1.6 0.00 0.00 0.00 51 1008.5
20260507174743 15 359 3.2 4.8 0.00 0.00 0.00 50 1008.8
20260507174241 16 342 3.2 6.4 0.00 0.00 0.00 53 1008.5
20260507173739 15 0 1.6 1.6 0.00 0.00 0.00 52 1008.6
20260507173235 15 293 0.0 0.0 0.00 0.00 0.00 53 1008.5
20260507172732 15 336 3.2 3.2 0.00 0.00 0.00 53 1008.9
20260507172229 15 327 0.0 1.6 0.00 0.00 0.00 47 1008.7
20260507171728 16 14 4.8 6.4 0.00 0.00 0.00 47 1008.9
20260507171226 16 240 1.6 1.6 0.00 0.00 0.00 50 1009.0
20260507170723 16 5 6.4 6.4 0.00 0.00 0.00 48 1009.1
20260507170220 16 346 4.8 6.4 0.00 0.00 0.00 52 1009.0
20260507165715 15 320 1.6 1.6 0.00 0.00 0.00 50 1009.2
20260507165212 14 346 8.0 12.9 0.00 0.00 0.00 50 1009.3
20260507164708 15 292 6.4 11.3 0.00 0.00 0.00 50 1009.4
20260507164206 14 224 1.6 1.6 0.00 0.00 0.00 55 1009.3
20260507163702 14 308 3.2 3.2 0.00 0.00 0.00 52 1009.4
20260507163200 15 269 1.6 3.2 0.00 0.00 0.00 50 1009.3
20260507162656 15 266 3.2 6.4 0.00 0.00 0.00 49 1009.5
20260507162152 15 291 1.6 3.2 0.00 0.00 0.00 50 1009.7
20260507161648 15 187 4.8 9.7 0.00 0.00 0.00 52 1009.5
20260507161145 15 287 1.6 3.2 0.00 0.00 0.00 49 1009.5
20260507160642 15 169 1.6 3.2 0.00 0.00 0.00 51 1009.4
20260507160138 15 314 3.2 4.8 0.00 0.00 0.00 53 1009.7
20260507155634 14 331 9.7 12.9 0.00 0.00 0.00 53 1009.9
20260507155131 14 278 3.2 4.8 0.00 0.00 0.00 56 1009.9
20260507154627 15 335 3.2 6.4 0.00 0.00 0.00 54 1009.7
20260507154125 14 321 3.2 4.8 0.00 0.00 0.00 53 1009.7
20260507153621 15 51 4.8 6.4 0.00 0.00 0.00 51 1010.0
20260507153118 15 169 0.0 0.0 0.00 0.00 0.00 57 1010.0
20260507152614 13 245 0.0 0.0 0.00 0.00 0.00 58 1010.0
20260507152110 15 184 0.0 1.6 0.00 0.00 0.00 54 1009.9
20260507151606 13 284 1.6 1.6 0.00 0.00 0.00 55 1010.0
20260507151103 13 326 4.8 4.8 0.00 0.00 0.00 56 1010.2
20260507150601 13 333 3.2 3.2 0.00 0.00 0.00 57 1009.9
20260507150057 13 165 0.0 1.6 0.00 0.00 0.00 55 1010.1
20260507145552 14 1 3.2 4.8 0.00 0.00 0.00 51 1010.3
20260507145050 13 344 3.2 4.8 0.00 0.00 0.00 53 1010.4
20260507144546 13 9 3.2 3.2 0.00 0.00 0.00 59 1010.6
20260507144045 14 329 3.2 4.8 0.00 0.00 0.00 57 1010.6
20260507143541 13 214 0.0 0.0 0.00 0.00 0.00 61 1010.5
20260507143039 13 348 1.6 3.2 0.00 0.00 0.00 61 1010.6
20260507142533 12 303 0.0 1.6 0.00 0.00 0.00 63 1010.7
20260507142031 13 326 4.8 4.8 0.00 0.00 0.00 61 1010.6
20260507141527 13 235 0.0 1.6 0.00 0.00 0.00 61 1010.7
20260507141023 12 324 1.6 1.6 0.00 0.00 0.00 62 1010.9
20260507140520 12 21 3.2 3.2 0.00 0.00 0.00 65 1010.9
20260507140018 12 340 8.0 9.7 0.00 0.00 0.00 60 1011.1
20260507135514 12 194 3.2 3.2 0.00 0.00 0.00 65 1010.9
20260507135012 12 343 1.6 3.2 0.00 0.00 0.00 66 1010.9
20260507134508 11 309 1.6 1.6 0.00 0.00 0.00 71 1011.0
20260507134004 12 263 1.6 1.6 0.00 0.00 0.00 72 1011.1
20260507133500 12 208 0.0 0.0 0.00 0.00 0.00 73 1011.3
20260507132959 11 211 0.0 1.6 0.00 0.00 0.00 75 1011.1
20260507132454 11 216 1.6 1.6 0.00 0.00 0.00 75 1011.4
20260507131951 11 138 0.0 0.0 0.00 0.00 0.00 76 1011.3
20260507131448 11 326 0.0 1.6 0.00 0.00 0.00 78 1011.2
20260507130945 10 235 0.0 0.0 0.00 0.00 0.00 81 1011.3
20260507130442 10 242 0.0 0.0 0.00 0.00 0.00 82 1011.4
20260507125941 10 262 0.0 0.0 0.00 0.00 0.00 83 1011.1
20260507125439 10 342 1.6 1.6 0.00 0.00 0.00 82 1011.4
20260507124936 9 230 0.0 1.6 0.00 0.00 0.00 86 1011.2
20260507124432 9 173 0.0 0.0 0.00 0.00 0.00 84 1011.5
20260507123930 10 247 0.0 0.0 0.00 0.00 0.00 84 1011.5
20260507123427 10 240 0.0 0.0 0.00 0.00 0.00 85 1011.5
20260507122923 9 274 0.0 0.0 0.00 0.00 0.00 85 1011.5
20260507122413 9 267 0.0 0.0 0.00 0.00 0.00 85 1011.3
20260507121910 9 284 0.0 0.0 0.00 0.00 0.00 86 1011.6
20260507121405 9 240 0.0 0.0 0.00 0.00 0.00 86 1011.4
20260507120902 9 286 0.0 1.6 0.00 0.00 0.00 86 1011.5
20260507120358 9 248 0.0 0.0 0.00 0.00 0.00 87 1011.5
20260507115855 9 256 0.0 0.0 0.00 0.00 0.00 86 1011.2
20260507115351 9 259 0.0 0.0 0.00 0.00 0.00 89 1011.3
20260507114846 8 259 0.0 0.0 0.00 0.00 0.00 90 1011.0
20260507114344 8 241 0.0 0.0 0.00 0.00 0.00 92 1011.2
20260507113841 8 244 0.0 0.0 0.00 0.00 0.00 94 1011.3
20260507113338 8 241 0.0 0.0 0.00 0.00 0.00 95 1011.0
20260507112835 8 236 0.0 0.0 0.00 0.00 0.00 96 1011.2
20260507112332 8 227 0.0 0.0 0.00 0.00 0.00 96 1010.8
20260507111830 8 243 0.0 0.0 0.00 0.00 0.00 95 1010.9
20260507111327 8 243 0.0 0.0 0.00 0.00 0.00 96 1010.9
20260507110823 8 234 0.0 0.0 0.00 0.00 0.00 95 1010.6
20260507110319 8 246 0.0 0.0 0.00 0.00 0.00 95 1010.8
20260507105816 8 252 0.0 0.0 0.00 0.00 0.00 95 1010.9
20260507105313 8 264 0.0 0.0 0.00 0.00 0.00 95 1010.6
20260507104810 7 266 0.0 0.0 0.00 0.00 0.00 94 1010.7
20260507104306 8 277 0.0 0.0 0.00 0.00 0.00 94 1010.4
20260507103802 7 245 0.0 0.0 0.00 0.00 0.00 93 1010.3
20260507103258 8 238 0.0 0.0 0.00 0.00 0.00 93 1010.3
20260507102755 8 234 0.0 0.0 0.00 0.00 0.00 92 1010.3
20260507102251 8 234 0.0 0.0 0.00 0.00 0.00 93 1010.6
20260507101748 8 231 0.0 0.0 0.00 0.00 0.00 92 1010.5
20260507101242 8 240 0.0 0.0 0.00 0.00 0.00 91 1010.3
20260507100740 8 224 0.0 0.0 0.00 0.00 0.00 91 1010.4
20260507100239 8 258 0.0 0.0 0.00 0.00 0.00 90 1010.2
20260507095736 8 282 0.0 0.0 0.00 0.00 0.00 90 1010.4
20260507095232 8 275 0.0 0.0 0.00 0.00 0.00 90 1010.3
20260507094729 8 268 0.0 0.0 0.00 0.00 0.00 91 1010.4
20260507094226 8 259 0.0 0.0 0.00 0.00 0.00 94 1010.3
20260507093723 8 256 0.0 0.0 0.00 0.00 0.00 95 1010.1
20260507093221 9 248 0.0 0.0 0.00 0.00 0.00 96 1010.3
20260507092719 9 259 0.0 0.0 0.00 0.00 0.00 97 1010.0
20260507092214 9 266 0.0 0.0 0.00 0.00 0.00 97 1010.1
20260507091711 9 263 0.0 0.0 0.00 0.00 0.00 97 1010.0
20260507091208 9 289 0.0 0.0 0.00 0.00 0.00 96 1010.0
20260507090703 9 270 0.0 0.0 0.00 0.00 0.00 97 1010.1
20260507090200 9 282 0.0 0.0 0.00 0.00 0.00 97 1010.1
20260507085657 9 284 0.0 0.0 0.00 0.00 0.00 98 1010.2
20260507085154 10 247 0.0 0.0 0.00 0.00 0.00 98 1010.2
20260507084651 10 258 0.0 0.0 0.00 0.00 0.00 98 1010.1
20260507084148 10 249 0.0 0.0 0.00 0.00 0.00 98 1009.9
20260507083644 10 256 0.0 0.0 0.00 0.00 0.00 98 1010.0
20260507083142 10 260 0.0 0.0 0.00 0.00 0.00 98 1009.9
20260507082637 10 256 0.0 0.0 0.00 0.00 0.00 98 1010.0
20260507082134 10 266 0.0 0.0 0.00 0.00 0.00 98 1010.0
20260507081630 10 255 0.0 0.0 0.00 0.00 0.00 98 1010.0
20260507081127 10 243 0.0 0.0 0.00 0.00 0.00 98 1010.1
20260507080623 10 242 0.0 0.0 0.00 0.00 0.00 98 1010.1
20260507080120 10 252 0.0 0.0 0.00 0.00 0.00 97 1010.2
20260507075620 10 255 0.0 0.0 0.00 0.00 0.00 97 1010.3
20260507075116 10 260 0.0 0.0 0.00 0.00 0.00 96 1010.3
20260507074614 10 255 0.0 0.0 0.00 0.00 0.00 96 1010.3
20260507074112 10 244 0.0 0.0 0.00 0.00 0.00 96 1010.3
20260507073608 10 258 0.0 0.0 0.00 0.00 0.00 96 1010.2
20260507073104 10 247 0.0 0.0 0.00 0.00 0.00 96 1010.1
20260507072601 10 255 0.0 0.0 0.00 0.00 0.00 96 1010.0
20260507072059 10 310 0.0 0.0 0.00 0.00 0.00 96 1010.1
20260507071556 10 280 0.0 0.0 0.00 0.00 0.00 97 1010.2
20260507071052 10 259 0.0 0.0 0.00 0.00 0.00 97 1010.1
20260507070549 10 266 0.0 0.0 0.00 0.00 0.00 97 1010.2
20260507070047 10 273 0.0 0.0 0.00 0.00 0.00 97 1010.3
20260507065543 10 268 0.0 0.0 0.00 0.00 0.00 96 1010.2
20260507065040 10 245 0.0 0.0 0.00 0.00 0.00 96 1010.1
20260507064538 10 277 0.0 0.0 0.00 0.00 0.00 97 1009.9
20260507064036 10 279 0.0 0.0 0.00 0.00 0.00 97 1009.9
20260507063533 10 248 0.0 0.0 0.00 0.00 0.00 96 1010.0
20260507063031 10 260 0.0 0.0 0.00 0.00 0.00 96 1009.7
20260507062527 10 260 0.0 0.0 0.00 0.00 0.00 96 1009.9
20260507062025 10 262 0.0 0.0 0.00 0.00 0.00 96 1010.1
20260507061522 10 263 0.0 0.0 0.00 0.00 0.00 96 1010.0
20260507061020 10 259 0.0 0.0 0.00 0.00 0.00 96 1010.2
20260507060518 10 258 0.0 0.0 0.00 0.00 0.00 96 1010.1
20260507060014 10 262 0.0 0.0 0.00 0.00 0.00 96 1010.3
20260507055514 10 276 0.0 0.0 0.00 0.00 0.00 96 1010.0
20260507055011 10 318 1.6 3.2 0.00 0.00 0.00 96 1010.2
20260507054507 10 256 0.0 0.0 0.00 0.00 0.00 97 1010.2
20260507054004 10 304 0.0 1.6 0.00 0.00 0.00 99 1010.3
20260507053502 10 305 0.0 0.0 0.00 0.00 0.00 99 1010.3
20260507053000 10 36 3.2 3.2 0.00 0.00 0.00 99 1010.3
20260507052458 10 326 1.6 1.6 0.00 0.00 0.00 99 1010.4
20260507051954 10 359 1.6 3.2 0.00 0.00 0.00 99 1010.5
20260507051452 10 291 0.0 0.0 0.00 0.00 0.00 99 1010.6
20260507050948 10 263 0.0 0.0 0.00 0.00 0.00 99 1010.5
20260507050445 10 241 0.0 0.0 0.00 0.00 0.00 99 1010.7
20260507045942 10 240 0.0 0.0 0.00 0.00 0.00 99 1010.6
20260507045438 10 238 0.0 0.0 0.00 0.00 0.00 99 1010.6
20260507044936 11 247 0.0 0.0 0.00 0.00 0.00 99 1010.3
20260507044432 11 245 0.0 0.0 0.00 0.00 0.00 99 1010.5
20260507043928 11 215 0.0 0.0 0.00 0.00 0.00 99 1010.6
20260507043425 11 243 0.0 0.0 0.00 0.00 0.00 99 1010.4
20260507042921 11 238 0.0 0.0 0.00 0.00 0.00 99 1010.4
20260507042418 11 259 0.0 0.0 0.00 0.00 0.00 99 1010.3
20260507041914 11 247 0.0 0.0 0.00 0.00 0.00 99 1010.3
20260507041411 11 232 0.0 0.0 0.00 0.00 0.00 99 1010.4
20260507040908 11 242 0.0 0.0 0.00 0.00 0.00 99 1010.5
20260507040404 11 250 0.0 0.0 0.00 0.00 0.00 99 1010.3
20260507035900 11 252 0.0 0.0 0.00 1.30 1.30 99 1010.3
20260507035356 11 242 0.0 0.0 0.00 1.30 1.30 99 1010.1
20260507034853 11 241 0.0 0.0 0.00 1.30 1.30 99 1010.3
20260507034350 11 241 0.0 0.0 0.00 1.30 1.30 99 1010.3